Location: Central Falls
(41.8900°N, 71.3929°W)
Time: 04:11:05
(UTC+00:00)

Tiros 1 - Pass Details

Date: 07 December 2023
Orbit: 625 x 658 km, 48.4° (Epoch: 01 March)

Event Time Altitude Azimuth Distance (km) Brightness Sun altitude
Rises 13:39:40 0° 297° (WNW) 2,989 10.0 13.6°
Reaches altitude 10° 13:42:01 10° 296° (WNW) 2,073 9.2 13.9°
Maximum altitude 13:46:48 78° 211° (SSW) 673 7.6 14.5°
Drops below altitude 10° 13:51:33 10° 125° (SE) 2,050 11.6 15.0°
Sets 13:53:52 0° 124° (SE) 2,953 12.0 15.3°
